Location: Street
(51.1247°N, 2.7429°W)
Time: 08:41:27
(UTC+00:00)

Tiros 1 - Pass Details

Date: 28 November 2020
Orbit: 630 x 663 km, 48.4° (Epoch: 21 January)

Event Time Altitude Azimuth Distance (km) Brightness Sun altitude
Enters shadow 21:30:41 - 279° (W) 3,000 11.2 -48.7°
Rises 21:30:44 0° 279° (W) 2,980 - -48.7°
Reaches altitude 10° 21:33:34 10° 263° (W) 2,059 - -49.0°
Maximum altitude 21:37:03 21° 216° (SW) 1,469 - -49.5°
Drops below altitude 10° 21:40:31 10° 168° (SSE) 2,036 - -50.0°
Sets 21:43:18 0° 152° (SSE) 2,935 - -50.3°
